Tracking 29091 objects as of 17-Jul-2024
HD Live streaming from Space Station
objects crossing your sky now

COSMOS 2550

Track COSMOS 2550 now!
10-day predictions


NORAD ID: 48865
Int'l Code: 2021-056A
Perigee: 465.8 km
Apogee: 477.3 km
Inclination: 67.1 °
Period: 93.9 minutes
Semi major axis: 6842 km
RCS: Unknown
Launch date: June 25, 2021
Source: Commonwealth of Independent States (former USSR) (CIS)
Launch site: PLESETSK MISSILE AND SPACE COMPLEX (PKMTR)
Your satellite tracking list
Your tracking list is empty




NASA's NSSDC Master Catalog

Two Line Element Set (TLE):
1 48865U 21056A   24199.54247458 -.00000125  00000-0  20433-5 0  9995
2 48865  67.1401  56.4820 0008404 269.8365  90.1826 15.33826918171429
Source of the keplerian elements: AFSPC